Location: Auttagershofen
(48.1940°N, 10.0237°E)
Time: 21:34:26
(UTC+00:00)

ISS - Visible Passes

Search period start: 08 March 2026 00:00
Search period end: 18 March 2026 00:00
Orbit: 416 x 427 km, 51.6° (Epoch: 8 March)

Date Brightness Start Highest point End Pass type
(mag) Time Alt. Az. Time Alt. Az. Time Alt. Az.
10 Mar -0.9 19:30:36 10° SSW 19:30:42 11° SSW 19:30:42 11° SSW visible
11 Mar -2.3 18:44:02 10° SSW 18:46:23 22° SSE 18:46:23 22° SSE visible
12 Mar -1.8 17:57:48 10° S 17:59:51 15° SE 18:01:52 10° E visible
12 Mar -2.4 19:32:51 10° WSW 19:34:53 34° SW 19:34:53 34° SW visible
13 Mar -3.5 18:45:51 10° SW 18:49:10 51° SSE 18:50:11 35° E visible
13 Mar -0.6 20:22:42 10° W 20:23:12 14° W 20:23:12 14° W visible
14 Mar -2.9 17:59:00 10° SSW 18:02:08 34° SE 18:05:15 10° ENE visible
14 Mar -3.0 19:35:28 10° W 19:38:20 54° WNW 19:38:20 54° WNW visible
15 Mar -3.7 18:48:15 10° WSW 18:51:40 81° NNW 18:53:21 27° ENE visible
15 Mar -0.7 20:25:28 10° WNW 20:26:20 16° WNW 20:26:20 16° WNW visible
16 Mar -3.7 18:01:06 10° WSW 18:04:29 75° SSE 18:07:53 10° ENE visible
16 Mar -2.8 19:38:11 10° W 19:41:14 45° NNW 19:41:14 45° NNW visible
17 Mar -3.1 18:50:52 10° W 18:54:13 52° N 18:56:03 23° ENE visible
17 Mar -0.8 20:28:03 10° WNW 20:29:02 17° WNW 20:29:02 17° WNW visible
